QPF
0.00 0.00 0.00 0.00 0.00 0.00 0.00 0.00 0.00 0.00 0.00 0.00 0.00 0.00 0.00 0.00 0.00 0.00 0.00 0.00 0.00 0.00 0.00 0.00 0.00 0.00 0.00 0.00 0.00 0.00 0.00 0.01 0.03 0.04 0.08 0.14 0.20 0.25 0.32 0.38 0.41 0.37 0.33 0.32
0.00 0.00 0.00 0.00 0.00 0.00 0.00 0.00 0.00 0.00 0.00 0.00 0.00 0.00 0.00 0.00 0.00 0.00 0.00 0.00 0.00 0.00 0.00 0.00 0.00 0.00 0.00 0.00 0.00 0.01 0.02 0.04 0.09 0.15 0.28 0.39 0.45 0.57 0.71 0.76 0.64 0.55 0.52 0.49
0.00 0.00 0.00 0.00 0.00 0.00 0.00 0.00 0.00 0.00 0.00 0.00 0.00 0.00 0.00 0.00 0.00 0.00 0.00 0.00 0.00 0.00 0.00 0.00 0.00 0.00 0.00 0.00 0.02 0.03 0.04 0.07 0.14 0.23 0.38 0.51 0.66 0.76 0.80 0.73 0.61 0.55 0.57 0.58
0.00 0.00 0.00 0.00 0.00 0.00 0.00 0.00 0.00 0.00 0.00 0.00 0.00 0.00 0.00 0.00 0.00 0.00 0.00 0.00 0.00 0.00 0.00 0.00 0.00 0.00 0.00 0.00 0.01 0.02 0.03 0.07 0.15 0.24 0.37 0.57 0.72 0.78 0.81 0.72 0.59 0.56 0.54 0.47
0.00 0.00 0.00 0.00 0.00 0.00 0.00 0.00 0.00 0.00 0.00 0.00 0.00 0.00 0.00 0.00 0.00 0.00 0.00 0.00 0.00 0.00 0.00 0.00 0.00 0.00 0.00 0.00 0.01 0.01 0.03 0.06 0.12 0.22 0.36 0.53 0.63 0.71 0.69 0.58 0.49 0.40 0.34 0.35
0.00 0.00 0.00 0.00 0.00 0.00 0.00 0.00 0.00 0.00 0.00 0.00 0.00 0.00 0.00 0.00 0.00 0.00 0.00 0.00 0.01 0.01 0.01 0.01 0.01 0.01 0.01 0.01 0.01 0.02 0.03 0.06 0.10 0.19 0.31 0.39 0.43 0.46 0.41 0.33 0.26 0.20 0.18 0.20
0.00 0.00 0.00 0.00 0.00 0.00 0.00 0.00 0.00 0.00 0.00 0.00 0.00 0.00 0.00 0.00 0.00 0.01 0.01 0.01 0.01 0.01 0.01 0.01 0.01 0.01 0.01 0.02 0.02 0.02 0.03 0.06 0.10 0.17 0.22 0.25 0.28 0.25 0.19 0.14 0.13 0.11 0.11 0.11
0.00 0.00 0.00 0.00 0.00 0.00 0.00 0.00 0.00 0.00 0.00 0.00 0.00 0.00 0.00 0.00 0.01 0.01 0.01 0.01 0.01 0.01 0.01 0.01 0.02 0.01 0.02 0.02 0.03 0.03 0.04 0.06 0.09 0.10 0.11 0.14 0.13 0.11 0.10 0.08 0.08 0.08 0.06 0.04
0.00 0.00 0.00 0.00 0.00 0.00 0.00 0.00 0.00 0.00 0.00 0.00 0.00 0.00 0.00 0.01 0.01 0.01 0.01 0.01 0.02 0.02 0.02 0.02 0.02 0.01 0.02 0.02 0.03 0.03 0.03 0.04 0.05 0.05 0.05 0.04 0.03 0.04 0.04 0.03 0.02 0.02 0.01 0.01
0.00 0.00 0.00 0.00 0.00 0.00 0.00 0.00 0.00 0.00 0.00 0.00 0.00 0.00 0.00 0.00 0.01 0.01 0.01 0.02 0.02 0.02 0.02 0.02 0.02 0.02 0.02 0.02 0.02 0.03 0.03 0.03 0.03 0.02 0.01 0.01 0.01 0.02 0.01 0.01 0.01 0.01 0.01 0.01
0.00 0.00 0.00 0.00 0.00 0.00 0.00 0.00 0.00 0.00 0.00 0.00 0.00 0.00 0.00 0.00 0.01 0.01 0.02 0.02 0.02 0.02 0.02 0.02 0.02 0.02 0.02 0.02 0.02 0.02 0.02 0.02 0.01 0.01 0.00 0.00 0.00 0.00 0.00 0.00 0.00 0.00 0.00 0.00
0.00 0.00 0.00 0.00 0.00 0.00 0.00 0.00 0.00 0.00 0.00 0.00 0.00 0.01 0.00 0.01 0.01 0.01 0.01 0.02 0.03 0.02 0.03 0.03 0.02 0.02 0.02 0.02 0.02 0.01 0.01 0.00 0.00 0.00 0.00 0.00 0.00 0.00 0.00 0.00 0.00 0.00 0.00 0.00
0.00 0.00 0.00 0.00 0.00 0.00 0.00 0.00 0.00 0.00 0.00 0.00 0.00 0.01 0.01 0.02 0.02 0.01 0.01 0.02 0.03 0.03 0.03 0.02 0.02 0.02 0.01 0.01 0.01 0.00 0.00 0.00 0.00 0.00 0.00 0.00 0.00 0.00 0.00 0.00 0.00 0.00 0.00 0.00
0.00 0.00 0.00 0.00 0.00 0.00 0.00 0.00 0.00 0.00 0.00 0.00 0.00 0.02 0.03 0.03 0.02 0.02 0.02 0.03 0.03 0.03 0.02 0.02 0.02 0.01 0.01 0.00 0.00 0.00 0.00 0.00 0.00 0.00 0.00 0.00 0.00 0.01 0.01 0.01 0.00 0.00 0.00 0.00
0.00 0.00 0.00 0.00 0.00 0.00 0.00 0.00 0.00 0.00 0.00 0.00 0.01 0.02 0.04 0.05 0.05 0.04 0.05 0.05 0.04 0.03 0.02 0.02 0.01 0.01 0.00 0.00 0.00 0.00 0.00 0.00 0.00 0.00 0.00 0.01 0.01 0.01 0.01 0.01 0.01 0.01 0.01 0.00
0.00 0.00 0.00 0.00 0.00 0.00 0.00 0.00 0.00 0.00 0.00 0.01 0.03 0.05 0.08 0.10 0.11 0.11 0.10 0.10 0.07 0.04 0.03 0.02 0.01 0.01 0.01 0.00 0.00 0.00 0.00 0.00 0.00 0.01 0.01 0.02 0.02 0.02 0.02 0.02 0.01 0.01 0.01 0.00
0.00 0.00 0.00 0.00 0.00 0.00 0.00 0.00 0.00 0.01 0.01 0.03 0.05 0.06 0.08 0.11 0.14 0.15 0.14 0.13 0.10 0.06 0.04 0.03 0.02 0.01 0.01 0.01 0.00 0.00 0.00 0.00 0.01 0.02 0.02 0.02 0.02 0.02 0.02 0.01 0.01 0.00 0.00 0.00
0.00 0.01 0.01 0.01 0.01 0.01 0.01 0.00 0.01 0.01 0.01 0.02 0.04 0.04 0.07 0.11 0.13 0.13 0.14 0.13 0.10 0.07 0.05 0.04 0.03 0.02 0.01 0.01 0.01 0.01 0.00 0.01 0.01 0.02 0.02 0.02 0.02 0.01 0.01 0.01 0.00 0.00 0.00 0.00
0.00 0.01 0.02 0.02 0.03 0.03 0.02 0.01 0.01 0.03 0.05 0.03 0.04 0.04 0.05 0.06 0.07 0.07 0.08 0.10 0.10 0.08 0.06 0.05 0.03 0.02 0.02 0.01 0.01 0.01 0.01 0.02 0.02 0.03 0.03 0.02 0.01 0.01 0.00 0.00 0.00 0.00 0.00 0.00
0.00 0.00 0.01 0.03 0.04 0.05 0.04 0.01 0.01 0.04 0.09 0.08 0.07 0.05 0.05 0.06 0.07 0.05 0.04 0.05 0.05 0.05 0.04 0.03 0.02 0.01 0.01 0.01 0.01 0.01 0.02 0.02 0.03 0.03 0.02 0.01 0.01 0.00 0.00 0.00 0.00 0.00 0.00 0.00
0.01 0.01 0.01 0.02 0.04 0.06 0.02 0.02 0.05 0.09 0.10 0.12 0.11 0.07 0.06 0.05 0.04 0.02 0.01 0.02 0.02 0.02 0.02 0.01 0.01 0.01 0.01 0.01 0.01 0.02 0.02 0.02 0.02 0.02 0.01 0.01 0.00 0.00 0.00 0.00 0.00 0.00 0.00 0.00
0.01 0.02 0.03 0.04 0.06 0.07 0.03 0.03 0.08 0.09 0.07 0.09 0.08 0.05 0.03 0.01 0.00 0.00 0.00 0.00 0.01 0.01 0.01 0.01 0.01 0.01 0.02 0.02 0.02 0.02 0.02 0.02 0.02 0.02 0.02 0.01 0.01 0.00 0.00 0.00 0.00 0.00 0.00 0.00
0.00 0.01 0.03 0.05 0.07 0.06 0.04 0.04 0.04 0.05 0.07 0.05 0.04 0.03 0.01 0.01 0.00 0.00 0.00 0.00 0.00 0.01 0.01 0.01 0.01 0.01 0.01 0.01 0.01 0.02 0.02 0.02 0.02 0.02 0.02 0.01 0.01 0.01 0.00 0.00 0.00 0.01 0.01 0.01
0.00 0.00 0.01 0.03 0.04 0.05 0.04 0.04 0.03 0.03 0.03 0.02 0.02 0.01 0.00 0.00 0.00 0.00 0.00 0.00 0.01 0.01 0.01 0.01 0.01 0.01 0.01 0.01 0.01 0.01 0.02 0.02 0.02 0.02 0.02 0.01 0.01 0.01 0.01 0.00 0.00 0.01 0.01 0.01
0.00 0.00 0.00 0.01 0.02 0.03 0.04 0.04 0.02 0.01 0.01 0.01 0.01 0.00 0.00 0.00 0.00 0.00 0.01 0.01 0.01 0.01 0.01 0.01 0.01 0.01 0.01 0.01 0.01 0.01 0.01 0.02 0.03 0.02 0.02 0.01 0.01 0.01 0.01 0.00 0.00 0.00 0.01 0.00
0.00 0.00 0.00 0.01 0.01 0.03 0.03 0.03 0.02 0.02 0.02 0.02 0.01 0.00 0.01 0.01 0.01 0.01 0.01 0.01 0.01 0.01 0.01 0.01 0.01 0.01 0.01 0.00 0.00 0.00 0.01 0.01 0.02 0.01 0.01 0.01 0.01 0.01 0.00 0.01 0.01 0.00 0.00 0.00
MSLP
1011.62 1011.92 1012.11 1012.20 1012.20 1012.14 1012.02 1011.86 1011.62 1011.31 1010.90 1010.41 1009.85 1009.26 1008.67 1008.12 1007.65 1007.28 1006.99 1006.78 1006.62 1006.49 1006.39 1006.34 1006.37 1006.53 1006.86 1007.41 1008.17 1009.13 1010.24 1011.41 1012.56 1013.61 1014.51 1015.24 1015.79 1016.19 1016.51 1016.79 1017.08 1017.41 1017.77 1018.18
1011.58 1011.82 1011.96 1012.02 1012.03 1012.00 1011.94 1011.84 1011.67 1011.42 1011.08 1010.64 1010.13 1009.58 1009.03 1008.53 1008.11 1007.76 1007.49 1007.26 1007.06 1006.85 1006.65 1006.47 1006.38 1006.42 1006.66 1007.14 1007.87 1008.83 1009.96 1011.16 1012.34 1013.41 1014.32 1015.01 1015.52 1015.88 1016.15 1016.40 1016.69 1017.04 1017.47 1017.96
1011.34 1011.52 1011.62 1011.68 1011.71 1011.74 1011.76 1011.75 1011.67 1011.51 1011.24 1010.87 1010.43 1009.94 1009.47 1009.04 1008.68 1008.40 1008.17 1007.97 1007.76 1007.52 1007.25 1006.99 1006.79 1006.72 1006.86 1007.26 1007.92 1008.83 1009.93 1011.11 1012.27 1013.32 1014.19 1014.85 1015.31 1015.63 1015.87 1016.11 1016.40 1016.79 1017.28 1017.85
1010.93 1011.06 1011.14 1011.21 1011.29 1011.39 1011.49 1011.58 1011.61 1011.54 1011.37 1011.09 1010.73 1010.33 1009.94 1009.61 1009.35 1009.16 1009.02 1008.89 1008.72 1008.49 1008.21 1007.90 1007.63 1007.48 1007.52 1007.81 1008.38 1009.20 1010.21 1011.32 1012.41 1013.40 1014.22 1014.84 1015.27 1015.56 1015.79 1016.04 1016.36 1016.80 1017.34 1017.97
1010.44 1010.52 1010.59 1010.67 1010.80 1010.97 1011.16 1011.35 1011.48 1011.51 1011.43 1011.25 1010.98 1010.69 1010.41 1010.20 1010.07 1010.01 1009.99 1009.97 1009.89 1009.73 1009.48 1009.17 1008.87 1008.65 1008.60 1008.78 1009.22 1009.92 1010.81 1011.80 1012.79 1013.70 1014.45 1015.03 1015.44 1015.73 1015.98 1016.26 1016.62 1017.10 1017.69 1018.36
1009.96 1010.00 1010.04 1010.13 1010.29 1010.52 1010.79 1011.05 1011.27 1011.39 1011.41 1011.32 1011.16 1010.98 1010.83 1010.76 1010.77 1010.87 1011.01 1011.14 1011.19 1011.14 1010.96 1010.68 1010.37 1010.11 1009.98 1010.05 1010.36 1010.90 1011.64 1012.49 1013.37 1014.17 1014.86 1015.40 1015.81 1016.12 1016.41 1016.73 1017.15 1017.67 1018.29 1018.97
1009.58 1009.57 1009.58 1009.66 1009.83 1010.08 1010.38 1010.70 1010.97 1011.17 1011.26 1011.26 1011.21 1011.15 1011.14 1011.22 1011.40 1011.67 1011.99 1012.28 1012.49 1012.57 1012.50 1012.29 1012.00 1011.72 1011.52 1011.49 1011.66 1012.05 1012.62 1013.32 1014.06 1014.77 1015.39 1015.90 1016.31 1016.66 1017.00 1017.38 1017.84 1018.39 1019.02 1019.69
1009.37 1009.29 1009.25 1009.29 1009.43 1009.67 1009.97 1010.30 1010.60 1010.83 1010.98 1011.07 1011.11 1011.17 1011.30 1011.54 1011.89 1012.34 1012.83 1013.30 1013.68 1013.90 1013.94 1013.82 1013.58 1013.29 1013.05 1012.93 1012.97 1013.21 1013.64 1014.18 1014.79 1015.41 1015.97 1016.46 1016.88 1017.26 1017.64 1018.07 1018.56 1019.13 1019.75 1020.39
1009.33 1009.18 1009.07 1009.05 1009.13 1009.31 1009.57 1009.87 1010.16 1010.40 1010.59 1010.74 1010.87 1011.05 1011.31 1011.69 1012.21 1012.82 1013.48 1014.11 1014.64 1015.00 1015.17 1015.14 1014.95 1014.69 1014.42 1014.24 1014.19 1014.31 1014.60 1015.01 1015.51 1016.04 1016.55 1017.01 1017.44 1017.84 1018.26 1018.71 1019.21 1019.77 1020.37 1020.95
1009.46 1009.22 1009.03 1008.92 1008.92 1009.02 1009.21 1009.45 1009.70 1009.93 1010.13 1010.32 1010.53 1010.80 1011.18 1011.70 1012.35 1013.10 1013.90 1014.66 1015.33 1015.81 1016.09 1016.15 1016.03 1015.81 1015.55 1015.33 1015.23 1015.27 1015.47 1015.79 1016.21 1016.66 1017.12 1017.57 1017.98 1018.39 1018.81 1019.26 1019.75 1020.28 1020.82 1021.35
1009.69 1009.38 1009.11 1008.92 1008.82 1008.83 1008.93 1009.09 1009.28 1009.48 1009.69 1009.90 1010.17 1010.52 1010.99 1011.61 1012.36 1013.22 1014.11 1014.98 1015.73 1016.31 1016.68 1016.82 1016.78 1016.61 1016.40 1016.20 1016.09 1016.10 1016.26 1016.53 1016.90 1017.31 1017.73 1018.15 1018.54 1018.93 1019.32 1019.74 1020.18 1020.65 1021.14 1021.60
1009.97 1009.61 1009.29 1009.03 1008.85 1008.78 1008.79 1008.87 1009.00 1009.16 1009.35 1009.58 1009.89 1010.29 1010.84 1011.52 1012.34 1013.26 1014.21 1015.13 1015.93 1016.57 1017.00 1017.22 1017.26 1017.17 1017.02 1016.89 1016.82 1016.86 1017.02 1017.29 1017.64 1018.03 1018.43 1018.81 1019.17 1019.51 1019.85 1020.21 1020.59 1020.99 1021.40 1021.80
1010.29 1009.91 1009.56 1009.26 1009.03 1008.89 1008.84 1008.85 1008.92 1009.04 1009.21 1009.45 1009.78 1010.22 1010.80 1011.53 1012.38 1013.32 1014.28 1015.21 1016.03 1016.70 1017.17 1017.45 1017.56 1017.57 1017.51 1017.47 1017.49 1017.60 1017.82 1018.12 1018.49 1018.87 1019.25 1019.60 1019.91 1020.20 1020.47 1020.75 1021.04 1021.37 1021.70 1022.04
1010.63 1010.27 1009.93 1009.63 1009.39 1009.21 1009.11 1009.07 1009.09 1009.18 1009.33 1009.57 1009.91 1010.37 1010.97 1011.71 1012.56 1013.49 1014.43 1015.34 1016.14 1016.81 1017.30 1017.62 1017.81 1017.91 1017.96 1018.04 1018.17 1018.38 1018.68 1019.04 1019.44 1019.84 1020.20 1020.52 1020.78 1020.99 1021.18 1021.37 1021.58 1021.82 1022.09 1022.38
1011.02 1010.72 1010.43 1010.15 1009.92 1009.73 1009.60 1009.53 1009.52 1009.58 1009.72 1009.95 1010.30 1010.77 1011.38 1012.11 1012.95 1013.84 1014.74 1015.60 1016.37 1017.01 1017.51 1017.86 1018.11 1018.29 1018.45 1018.64 1018.89 1019.21 1019.60 1020.02 1020.46 1020.87 1021.23 1021.50 1021.71 1021.85 1021.96 1022.07 1022.20 1022.36 1022.57 1022.82
1011.48 1011.26 1011.03 1010.81 1010.61 1010.43 1010.29 1010.19 1010.16 1010.20 1010.32 1010.56 1010.91 1011.39 1012.00 1012.73 1013.54 1014.39 1015.25 1016.06 1016.78 1017.38 1017.86 1018.23 1018.52 1018.77 1019.02 1019.30 1019.65 1020.06 1020.52 1021.01 1021.48 1021.89 1022.22 1022.46 1022.61 1022.69 1022.72 1022.75 1022.81 1022.92 1023.08 1023.29
1012.02 1011.89 1011.73 1011.57 1011.39 1011.23 1011.08 1010.97 1010.91 1010.94 1011.06 1011.30 1011.66 1012.16 1012.77 1013.50 1014.30 1015.13 1015.94 1016.70 1017.37 1017.94 1018.40 1018.76 1019.07 1019.36 1019.66 1020.01 1020.42 1020.89 1021.40 1021.90 1022.38 1022.78 1023.08 1023.28 1023.37 1023.38 1023.36 1023.33 1023.33 1023.40 1023.53 1023.72
1012.63 1012.57 1012.48 1012.35 1012.20 1012.03 1011.88 1011.75 1011.68 1011.70 1011.82 1012.07 1012.45 1012.98 1013.62 1014.36 1015.16 1015.97 1016.76 1017.49 1018.12 1018.65 1019.08 1019.43 1019.73 1020.03 1020.35 1020.72 1021.14 1021.62 1022.13 1022.62 1023.07 1023.44 1023.70 1023.85 1023.89 1023.85 1023.78 1023.71 1023.68 1023.71 1023.82 1024.00
1013.27 1013.25 1013.19 1013.08 1012.93 1012.75 1012.58 1012.44 1012.36 1012.37 1012.51 1012.78 1013.20 1013.76 1014.44 1015.21 1016.03 1016.85 1017.63 1018.33 1018.94 1019.44 1019.83 1020.15 1020.44 1020.71 1021.01 1021.36 1021.76 1022.20 1022.67 1023.11 1023.51 1023.82 1024.03 1024.12 1024.12 1024.05 1023.95 1023.86 1023.82 1023.84 1023.94 1024.11
1013.86 1013.86 1013.80 1013.68 1013.52 1013.33 1013.13 1012.97 1012.89 1012.91 1013.07 1013.38 1013.84 1014.45 1015.18 1015.99 1016.84 1017.68 1018.46 1019.16 1019.74 1020.21 1020.58 1020.86 1021.10 1021.34 1021.59 1021.89 1022.23 1022.60 1022.99 1023.37 1023.69 1023.94 1024.09 1024.14 1024.11 1024.02 1023.91 1023.82 1023.78 1023.81 1023.91 1024.08
1014.37 1014.35 1014.27 1014.13 1013.94 1013.73 1013.52 1013.36 1013.28 1013.33 1013.52 1013.87 1014.38 1015.04 1015.82 1016.67 1017.55 1018.41 1019.19 1019.88 1020.45 1020.89 1021.22 1021.47 1021.67 1021.85 1022.04 1022.27 1022.53 1022.82 1023.13 1023.42 1023.66 1023.84 1023.94 1023.96 1023.92 1023.83 1023.73 1023.66 1023.64 1023.69 1023.81 1023.98
1014.74 1014.69 1014.58 1014.41 1014.21 1013.99 1013.79 1013.64 1013.59 1013.67 1013.91 1014.30 1014.87 1015.57 1016.38 1017.26 1018.15 1019.01 1019.79 1020.46 1021.00 1021.41 1021.71 1021.92 1022.07 1022.20 1022.34 1022.49 1022.68 1022.89 1023.12 1023.33 1023.50 1023.63 1023.69 1023.69 1023.65 1023.57 1023.51 1023.48 1023.49 1023.57 1023.71 1023.90
1014.98 1014.89 1014.77 1014.59 1014.40 1014.19 1014.02 1013.92 1013.91 1014.04 1014.33 1014.77 1015.36 1016.09 1016.91 1017.79 1018.66 1019.49 1020.24 1020.87 1021.38 1021.76 1022.02 1022.20 1022.31 1022.40 1022.49 1022.59 1022.71 1022.86 1023.01 1023.16 1023.28 1023.37 1023.41 1023.41 1023.38 1023.35 1023.33 1023.34 1023.40 1023.53 1023.70 1023.90
1015.10 1015.00 1014.88 1014.73 1014.57 1014.41 1014.30 1014.26 1014.33 1014.52 1014.85 1015.33 1015.94 1016.66 1017.46 1018.29 1019.12 1019.89 1020.58 1021.15 1021.61 1021.94 1022.17 1022.32 1022.41 1022.46 1022.52 1022.59 1022.67 1022.77 1022.88 1022.98 1023.07 1023.13 1023.17 1023.18 1023.18 1023.18 1023.21 1023.28 1023.40 1023.57 1023.77 1024.00
1015.14 1015.06 1014.97 1014.88 1014.79 1014.73 1014.71 1014.76 1014.90 1015.16 1015.53 1016.03 1016.63 1017.32 1018.06 1018.81 1019.55 1020.23 1020.83 1021.33 1021.72 1022.00 1022.20 1022.32 1022.39 1022.44 1022.49 1022.53 1022.60 1022.67 1022.75 1022.83 1022.89 1022.94 1022.98 1023.00 1023.03 1023.08 1023.16 1023.28 1023.44 1023.65 1023.90 1024.15
1015.15 1015.12 1015.10 1015.10 1015.11 1015.16 1015.25 1015.40 1015.63 1015.95 1016.36 1016.85 1017.42 1018.05 1018.70 1019.36 1019.98 1020.55 1021.04 1021.45 1021.77 1022.00 1022.16 1022.27 1022.34 1022.39 1022.44 1022.48 1022.54 1022.60 1022.66 1022.71 1022.76 1022.79 1022.83 1022.86 1022.91 1022.98 1023.10 1023.26 1023.47 1023.72 1024.00 1024.28
Thickness
5704 5704 5706 5715 5722 5733 5735 5737 5739 5748 5758 5757 5762 5770 5783 5794 5798 5802 5806 5810 5812 5816 5823 5824 5821 5817 5810 5803 5794 5786 5778 5771 5763 5755 5746 5735 5726 5719 5711 5702 5695 5689 5685 5680
5691 5697 5714 5721 5720 5719 5720 5722 5731 5741 5749 5749 5755 5762 5779 5787 5789 5792 5795 5799 5803 5807 5811 5812 5813 5812 5808 5802 5794 5786 5778 5770 5762 5755 5745 5734 5723 5713 5706 5698 5692 5685 5678 5673
5691 5707 5716 5709 5705 5705 5712 5718 5727 5731 5742 5746 5743 5751 5768 5779 5784 5784 5787 5790 5794 5796 5799 5801 5802 5803 5803 5799 5793 5785 5777 5768 5759 5750 5739 5728 5717 5707 5700 5695 5689 5682 5674 5667
5691 5704 5701 5700 5703 5706 5707 5723 5725 5725 5724 5738 5739 5738 5766 5769 5769 5770 5772 5775 5778 5783 5788 5790 5792 5792 5794 5794 5791 5783 5773 5763 5753 5744 5735 5724 5714 5704 5697 5690 5683 5674 5666 5661
5686 5697 5695 5695 5706 5710 5715 5728 5723 5722 5721 5722 5731 5728 5759 5761 5755 5755 5754 5756 5759 5764 5769 5771 5774 5777 5780 5782 5779 5773 5763 5753 5745 5737 5729 5719 5710 5700 5690 5682 5673 5665 5658 5654
5692 5700 5702 5705 5712 5714 5717 5715 5714 5715 5718 5707 5726 5726 5742 5752 5742 5739 5738 5738 5741 5745 5749 5752 5756 5759 5761 5762 5760 5755 5747 5739 5732 5725 5717 5711 5701 5692 5682 5673 5664 5656 5649 5643
5678 5690 5701 5708 5703 5705 5706 5698 5694 5696 5700 5711 5732 5724 5736 5730 5727 5725 5723 5722 5724 5728 5731 5733 5735 5738 5739 5739 5738 5735 5729 5721 5716 5710 5704 5698 5690 5683 5674 5664 5655 5648 5640 5632
5671 5678 5695 5702 5702 5699 5700 5702 5695 5696 5707 5723 5719 5720 5726 5724 5719 5717 5714 5711 5710 5711 5713 5714 5716 5718 5718 5719 5718 5715 5709 5703 5698 5694 5688 5683 5676 5669 5661 5652 5644 5636 5629 5621
5678 5682 5701 5706 5710 5708 5700 5702 5717 5708 5710 5711 5723 5719 5711 5713 5708 5707 5702 5699 5696 5695 5695 5696 5697 5698 5699 5699 5698 5695 5692 5687 5682 5677 5671 5665 5659 5653 5644 5637 5630 5622 5615 5608
5683 5676 5694 5702 5704 5706 5712 5710 5702 5694 5688 5692 5712 5715 5717 5705 5699 5696 5691 5686 5683 5681 5680 5680 5680 5680 5680 5680 5679 5678 5675 5670 5666 5661 5656 5649 5642 5636 5629 5623 5615 5608 5601 5595
5680 5673 5683 5690 5688 5695 5694 5695 5696 5702 5707 5699 5700 5714 5718 5709 5698 5689 5681 5676 5671 5668 5666 5665 5664 5664 5665 5664 5664 5662 5658 5654 5649 5644 5639 5633 5626 5619 5613 5606 5598 5591 5585 5579
5673 5674 5677 5685 5697 5705 5702 5698 5696 5687 5691 5697 5700 5696 5702 5701 5693 5682 5670 5664 5659 5656 5653 5651 5651 5651 5651 5649 5648 5645 5642 5638 5633 5627 5622 5615 5609 5603 5596 5588 5581 5574 5568 5562
5665 5665 5663 5669 5677 5688 5687 5692 5695 5694 5693 5694 5694 5687 5688 5685 5677 5670 5661 5654 5649 5645 5642 5640 5638 5637 5636 5634 5632 5629 5626 5621 5616 5611 5605 5598 5591 5584 5577 5570 5563 5557 5551 5546
5660 5661 5663 5664 5672 5678 5676 5682 5687 5688 5688 5689 5692 5680 5672 5669 5663 5656 5650 5645 5639 5635 5631 5628 5625 5621 5619 5617 5615 5612 5607 5602 5598 5592 5586 5579 5572 5565 5558 5551 5545 5540 5534 5529
5655 5655 5658 5663 5668 5671 5669 5670 5675 5677 5679 5681 5681 5676 5669 5663 5657 5648 5640 5634 5629 5624 5619 5615 5610 5606 5603 5600 5596 5592 5587 5582 5578 5573 5566 5559 5552 5546 5540 5534 5528 5523 5518 5513
5644 5644 5648 5648 5656 5659 5657 5659 5662 5663 5667 5669 5668 5660 5660 5655 5648 5637 5630 5625 5618 5612 5606 5600 5594 5590 5586 5582 5577 5573 5568 5563 5558 5553 5546 5539 5534 5528 5523 5517 5512 5507 5502 5497
5636 5632 5633 5637 5644 5644 5640 5643 5646 5648 5652 5652 5649 5645 5644 5634 5626 5621 5617 5613 5605 5598 5591 5585 5579 5573 5569 5565 5560 5555 5550 5545 5539 5533 5527 5522 5516 5511 5507 5503 5497 5492 5487 5482
5621 5623 5626 5629 5625 5613 5625 5634 5633 5633 5631 5634 5632 5628 5623 5613 5603 5599 5598 5595 5588 5582 5575 5568 5562 5557 5552 5548 5544 5539 5533 5528 5522 5517 5512 5507 5502 5497 5492 5487 5482 5476 5472 5467
5615 5614 5616 5616 5615 5617 5615 5618 5619 5618 5613 5615 5612 5606 5601 5598 5592 5580 5576 5575 5571 5565 5559 5553 5548 5543 5538 5533 5528 5523 5517 5512 5507 5502 5497 5492 5488 5483 5477 5472 5466 5461 5457 5452
5612 5611 5610 5607 5599 5596 5597 5606 5612 5611 5599 5601 5600 5595 5593 5593 5586 5567 5559 5557 5553 5548 5543 5538 5534 5529 5523 5517 5513 5509 5503 5498 5493 5489 5484 5478 5473 5468 5463 5456 5451 5447 5442 5439
5602 5601 5600 5597 5593 5592 5591 5599 5604 5591 5582 5589 5589 5586 5584 5578 5570 5554 5547 5542 5538 5534 5529 5526 5521 5516 5510 5504 5500 5495 5491 5486 5481 5476 5470 5464 5459 5453 5448 5442 5437 5433 5431 5426
5590 5589 5589 5587 5583 5575 5580 5590 5582 5574 5579 5580 5578 5574 5566 5557 5548 5541 5535 5530 5526 5521 5517 5513 5508 5502 5496 5492 5489 5485 5480 5474 5468 5463 5457 5451 5446 5442 5436 5431 5426 5422 5419 5417
5585 5582 5583 5580 5574 5571 5572 5570 5570 5572 5570 5569 5567 5562 5555 5546 5537 5531 5525 5520 5515 5511 5506 5502 5497 5491 5486 5483 5480 5475 5468 5463 5457 5452 5446 5440 5435 5429 5425 5421 5418 5415 5411 5409
5583 5580 5579 5578 5575 5572 5569 5568 5567 5565 5563 5562 5560 5555 5548 5538 5529 5522 5516 5511 5505 5501 5496 5492 5488 5484 5479 5475 5470 5465 5459 5453 5448 5442 5436 5431 5426 5422 5417 5412 5411 5407 5404 5401
5578 5576 5575 5573 5572 5568 5564 5561 5559 5557 5555 5553 5549 5545 5538 5529 5521 5514 5508 5502 5497 5493 5489 5486 5482 5477 5471 5466 5461 5456 5450 5444 5439 5434 5429 5423 5419 5415 5410 5407 5401 5397 5392 5386
5577 5573 5570 5569 5565 5564 5558 5554 5551 5548 5546 5542 5538 5532 5526 5519 5512 5506 5500 5495 5491 5487 5483 5479 5474 5469 5464 5459 5454 5448 5442 5436 5431 5427 5422 5419 5414 5410 5407 5403 5397 5384 5380 5375